[[{"header":{"parameterUnit":"m.s-1","parameterCategory":1,"la1":30.2991,"la2":30.254,"lo1":-89.0895,"lo2":-89.0444,"dy":0.0017,"dx":0.0017,"nx":28,"ny":28,"refTime":"2023-03-22T21:00:00:Z","depth":0,"parameterNumber":2,"parameterNumberName":"U-component_of_WINDS"},"data":[0,0,0,0,0,0,0,0,0,0,0,0,0,0,0,0,0,0,0,0,0,0,0,0,0,0,0,0,0,0,0,0,0,0,0,0,0,0,0,0,0,0,0,0,0,0,0,0,0,0,0,0,0,0,0,0,0,0,-3.1523,-3.1523,0,-3.151,-3.151,-3.1509,-3.1471,-3.147,-3.1469,-3.1468,-3.1454,-3.1454,-3.1454,0,0,0,0,0,0,0,0,0,0,0,0,0,-3.1517,-3.1517,-3.1523,-3.1523,-3.1523,-3.151,-3.151,-3.1509,-3.1471,-3.147,-3.1469,-3.1468,-3.1453,-3.1454,-3.1454,0,0,0,0,0,0,0,0,0,0,0,0,0,-3.1513,-3.1517,-3.1523,-3.1502,-3.15,-3.151,-3.151,-3.1509,-3.1471,-3.147,-3.1469,-3.1467,-3.1453,-3.1454,-3.1454,-3.1483,0,0,-3.1456,-3.1457,0,0,0,0,0,0,0,0,-3.1513,-3.1513,-3.1505,-3.1504,-3.1501,-3.1491,-3.1502,-3.1501,-3.1471,-3.1482,-3.1468,-3.1467,-3.1467,-3.1466,-3.1466,-3.1483,-3.1482,-3.1456,-3.1457,-3.1457,-3.1457,0,0,0,0,0,0,0,-3.1514,-3.1514,-3.1518,-3.1505,-3.1503,-3.1494,-3.1492,-3.1501,-3.1482,-3.1481,-3.1478,-3.1477,-3.1466,-3.1466,-3.1466,-3.1482,-3.1456,-3.1457,-3.1457,-3.1457,-3.1522,-3.1523,0,0,0,0,0,0,-3.1517,-3.1514,-3.1518,-3.1518,-3.1504,-3.1495,-3.1493,-3.1495,-3.1481,-3.1478,-3.1478,-3.1475,-3.1466,-3.1465,-3.1465,-3.1498,-3.1457,-3.1457,-3.1458,-3.152,-3.1522,-3.1523,0,0,0,0,0,0,-3.1517,-3.1518,-3.1519,-3.1515,-3.1515,-3.1496,-3.15,-3.1496,-3.1496,-3.1479,-3.1476,-3.1482,-3.1465,-3.1464,-3.1479,-3.1497,-3.1458,-3.1458,-3.1519,-3.1521,-3.1523,-3.1563,0,0,0,0,0,0,-3.1517,-3.1518,-3.1528,-3.1516,-3.1515,-3.1533,-3.1501,-3.1496,-3.1497,-3.1493,-3.1482,-3.1479,-3.1464,-3.1479,-3.148,-3.1497,-3.1459,-3.1517,-3.152,-3.1522,-3.156,-3.1566,-3.1572,0,0,0,0,0,-3.1517,-3.154,-3.1529,-3.153,-3.1527,-3.1534,-3.1534,-3.1515,-3.1499,-3.1509,-3.1499,-3.1479,-3.1495,-3.148,-3.1482,-3.1499,-3.1516,-3.1519,-3.1522,-3.1557,-3.1565,-3.1571,0,0,0,0,0,0,-3.1554,-3.1538,-3.1525,-3.1545,-3.1541,-3.1527,-3.154,-3.1524,-3.1525,-3.1521,-3.1499,-3.1496,-3.1514,-3.1509,-3.1492,-3.1527,-3.1502,-3.1506,-3.1529,-3.1536,-3.1542,-3.1542,-3.1459,0,0,0,0,0,-3.1565,-3.1571,-3.1557,-3.1576,-3.1575,-3.1558,-3.156,-3.1547,-3.1542,-3.154,-3.153,-3.1526,-3.1531,-3.1533,-3.1536,-3.156,-3.1557,-3.1573,-3.1579,-3.1583,-3.1586,-3.1598,-3.1605,-3.1533,-3.1533,-3.1533,0,0,-3.1586,-3.1578,-3.1584,-3.1583,-3.1578,-3.1586,-3.1557,-3.1565,-3.1571,-3.1541,-3.1554,-3.1548,-3.1542,-3.1562,-3.157,-3.1557,-3.1606,-3.1587,-3.1591,-3.1591,-3.1602,-3.1609,-3.1615,-3.1536,-3.1535,-3.1535,0,0,-3.1629,-3.1624,-3.1639,-3.1636,-3.163,-3.1619,-3.1623,-3.1612,-3.1607,-3.162,-3.1598,-3.1605,-3.1612,-3.1609,-3.1608,-3.1653,-3.1635,-3.1655,-3.1684,-3.1696,-3.1702,-3.1707,-3.1722,-3.1728,-3.1658,-3.1658,-3.1658,0,-3.1656,-3.1666,-3.1649,-3.1659,-3.166,-3.1635,-3.165,-3.1648,-3.1643,-3.1644,-3.1631,-3.164,-3.1635,-3.1653,-3.1664,-3.1665,-3.1669,-3.1655,-3.1703,-3.1707,-3.1712,-3.1726,-3.1731,-3.1661,-3.166,-3.166,-3.166,0,-3.17,-3.1708,-3.1721,-3.1717,-3.172,-3.1733,-3.1717,-3.1722,-3.171,-3.1701,-3.1715,-3.1708,-3.1709,-3.1713,-3.1701,-3.1731,-3.1723,-3.1707,-3.1681,-3.1721,-3.1734,-3.1739,-3.1664,-3.1663,-3.1662,-3.1662,0,0,-3.1763,-3.1751,-3.1756,-3.1755,-3.1748,-3.1753,-3.1766,-3.1768,-3.1772,-3.1771,-3.178,-3.1789,-3.1774,-3.1773,-3.1761,-3.1772,-3.1808,-3.1754,-3.1754,-3.1763,-3.1839,-3.185,-3.1857,-3.1797,-3.1798,-3.1799,-3.1839,0,-3.1802,-3.1822,-3.1808,-3.183,-3.1837,-3.1815,-3.1826,-3.1824,-3.1816,-3.1821,-3.1813,-3.1819,-3.18,-3.1799,-3.181,-3.1801,-3.1822,-3.1798,-3.1805,-3.1805,-3.1804,-3.1863,-3.1875,-3.1913,-3.1844,-3.1845,-3.1846,0,-3.185,-3.1851,-3.1874,-3.1867,-3.1869,-3.1879,-3.188,-3.1886,-3.1883,-3.1877,-3.1878,-3.1863,-3.1875,-3.1853,-3.187,-3.1854,-3.1856,-3.1853,-3.1854,-3.1852,-3.1826,-3.1861,-3.1925,-3.193,-3.1854,-3.1853,-3.1853,0,-3.1891,-3.1899,-3.1914,-3.1914,-3.1906,-3.1914,-3.1911,-3.1907,-3.1909,-3.1911,-3.1912,-3.1915,-3.1916,-3.1919,-3.1906,-3.1891,-3.1924,-3.19,-3.1919,-3.1919,-3.1924,-3.1924,-3.1987,-3.193,-3.1929,-3.1929,-3.1929,0,-3.1936,-3.195,-3.1933,-3.1942,-3.1959,-3.1943,-3.196,-3.1955,-3.1952,-3.196,-3.1942,-3.195,-3.1933,-3.1939,-3.1929,-3.1944,-3.1945,-3.194,-3.1937,-3.1941,-3.1941,-3.194,-3.1936,-3.1931,-3.1931,-3.193,-3.193,0,-3.1984,-3.1973,-3.1988,-3.198,-3.1978,-3.1991,-3.1984,-3.1992,-3.1985,-3.1995,-3.1997,-3.1985,-3.1992,-3.198,-3.1985,-3.1978,-3.1999,-3.1992,-3.2,-3.1997,-3.2015,-3.2013,-3.2079,-3.2086,-3.2026,-3.2026,-3.2027,0,-3.2011,-3.2022,-3.2016,-3.202,-3.2019,-3.2026,-3.2028,-3.2014,-3.2018,-3.2017,-3.2025,-3.2031,-3.2034,-3.2046,-3.2038,-3.2042,-3.2034,-3.2057,-3.2035,-3.2038,-3.2033,-3.2032,-3.2032,-3.2061,-3.2062,-3.2062,-3.2063,0,-3.2061,-3.2056,-3.206,-3.2064,-3.2068,-3.207,-3.207,-3.2075,-3.206,-3.2066,-3.2072,-3.2075,-3.2081,-3.2087,-3.2089,-3.2087,-3.2072,-3.2071,-3.2075,-3.2077,-3.208,-3.2078,-3.201,-3.2068,-3.2068,-3.2067,-3.2067,-3.2067,-3.2099,-3.2108,-3.2105,-3.2111,-3.2111,-3.2112,-3.2119,-3.2114,-3.2119,-3.2123,-3.2115,-3.2124,-3.2122,-3.2125,-3.2124,-3.2131,-3.212,-3.2127,-3.2128,-3.2129,-3.2132,-3.2082,-3.2131,-3.2131,-3.2131,-3.2131,-3.2131,0,-3.2147,-3.2145,-3.2151,-3.2152,-3.2157,-3.2145,-3.2146,-3.2151,-3.2159,-3.2159,-3.2163,-3.2171,-3.2177,-3.2171,-3.2176,-3.2183,-3.2176,-3.2184,-3.2182,-3.2182,-3.2141,-3.2136,-3.2189,-3.2189,-3.2189,-3.2189,-3.2189,-3.2189,-3.2172,-3.2187,-3.2181,-3.2196,-3.2193,-3.2202,-3.2204,-3.2205,-3.2205,-3.2215,-3.222,-3.2216,-3.2214,-3.2218,-3.2224,-3.2222,-3.2223,-3.2233,-3.2229,-3.219,-3.2185,-3.2179,-3.2174,-3.2234,-3.2235,-3.2269,-3.2269,-3.227]},{"header":{"parameterUnit":"m.s-1","parameterCategory":1,"la1":30.2991,"la2":30.254,"lo1":-89.0895,"lo2":-89.0444,"dy":0.0017,"dx":0.0017,"nx":28,"ny":28,"refTime":"2023-03-22T21:00:00:Z","depth":0,"parameterNumber":3,"parameterNumberName":"V-component_of_WINDS"},"data":[0,0,0,0,0,0,0,0,0,0,0,0,0,0,0,0,0,0,0,0,0,0,0,0,0,0,0,0,0,0,0,0,0,0,0,0,0,0,0,0,0,0,0,0,0,0,0,0,0,0,0,0,0,0,0,0,0,0,3.0777,3.0776,0,3.0661,3.066,3.0658,3.0647,3.0648,3.0649,3.065,3.0526,3.0521,3.0517,0,0,0,0,0,0,0,0,0,0,0,0,0,3.0986,3.0983,3.0777,3.0776,3.0774,3.0661,3.066,3.0658,3.0646,3.0648,3.0649,3.0651,3.0527,3.0522,3.0516,0,0,0,0,0,0,0,0,0,0,0,0,0,3.0885,3.0981,3.0778,3.0755,3.0752,3.0662,3.066,3.0658,3.0646,3.0648,3.065,3.0651,3.0529,3.0522,3.0516,3.0438,0,0,3.0495,3.0492,0,0,0,0,0,0,0,0,3.0891,3.0878,3.076,3.0757,3.0753,3.067,3.0688,3.0584,3.0646,3.0686,3.065,3.0652,3.0572,3.0562,3.0536,3.0432,3.0427,3.0495,3.0491,3.0488,3.0486,0,0,0,0,0,0,0,3.0898,3.0882,3.0731,3.0758,3.0754,3.075,3.0738,3.0668,3.062,3.0683,3.0682,3.0668,3.057,3.0542,3.0533,3.0425,3.0495,3.0489,3.0485,3.0482,3.0255,3.0253,0,0,0,0,0,0,3.091,3.0888,3.0735,3.0728,3.0828,3.0745,3.0731,3.0695,3.0621,3.0611,3.0667,3.0668,3.0553,3.0541,3.0528,3.0435,3.0488,3.0482,3.0478,3.0257,3.0255,3.0253,0,0,0,0,0,0,3.0914,3.0896,3.074,3.0808,3.0788,3.0739,3.0699,3.0692,3.0664,3.0609,3.06,3.0647,3.0554,3.0538,3.0462,3.043,3.0479,3.0473,3.026,3.0256,3.0254,3.0246,0,0,0,0,0,0,3.092,3.0898,3.0868,3.0807,3.0784,3.0676,3.0697,3.0688,3.0653,3.0653,3.0588,3.0579,3.0554,3.0472,3.0455,3.0422,3.0467,3.0262,3.0258,3.0255,3.0249,3.0243,3.0238,0,0,0,0,0,3.0928,3.0869,3.0867,3.0848,3.0746,3.0674,3.066,3.0634,3.065,3.062,3.0586,3.0581,3.0437,3.0464,3.0445,3.041,3.0264,3.0259,3.0255,3.0251,3.0244,3.0238,0,0,0,0,0,0,3.0925,3.086,3.0857,3.0777,3.0732,3.0672,3.0633,3.0627,3.0574,3.0577,3.0545,3.0531,3.0457,3.0425,3.0457,3.0332,3.0352,3.0343,3.0355,3.0348,3.0343,3.0352,3.0462,0,0,0,0,0,3.0915,3.0863,3.0809,3.0743,3.0721,3.0681,3.0648,3.0633,3.0583,3.0563,3.0523,3.0474,3.0418,3.0381,3.0326,3.0244,3.0231,3.0211,3.0205,3.0201,3.0194,3.0151,3.0142,3.0238,3.0238,3.0238,0,0,3.0894,3.0852,3.0821,3.0742,3.0705,3.0651,3.0665,3.0606,3.0566,3.0554,3.0481,3.045,3.0393,3.0315,3.0278,3.0286,3.0165,3.0195,3.0193,3.0188,3.0146,3.0137,3.0129,3.0234,3.0235,3.0236,0,0,3.0828,3.0791,3.0734,3.0697,3.0642,3.0616,3.0603,3.0545,3.0525,3.0451,3.0442,3.0393,3.0296,3.0257,3.0225,3.0148,3.0143,3.0131,3.0103,3.0061,3.0054,3.0047,3.0021,3.0012,3.0124,3.0124,3.0124,0,3.0808,3.0729,3.0705,3.0648,3.0614,3.0604,3.0546,3.051,3.0439,3.0416,3.0426,3.0307,3.0268,3.0182,3.0164,3.0137,3.0121,3.0138,3.0057,3.005,3.0043,3.0019,3.0009,3.0123,3.0123,3.0123,3.0123,0,3.0708,3.0653,3.0613,3.0548,3.0509,3.0452,3.0419,3.0383,3.0372,3.0345,3.0271,3.0225,3.0162,3.014,3.0126,3.0052,3.0059,3.0064,3.0083,3.0034,3.001,3.0,3.0122,3.0122,3.0122,3.0123,0,0,3.0635,3.0561,3.0546,3.0518,3.0458,3.0414,3.0357,3.0298,3.0268,3.0219,3.0171,3.0091,3.0097,3.006,3.0042,3.0005,2.9951,3.0015,3.0013,3.0006,2.9868,2.9866,2.9855,2.9947,2.9945,2.9943,2.9874,0,3.0564,3.0464,3.0442,3.0356,3.0306,3.0296,3.0247,3.0204,3.0178,3.0131,3.0102,3.0047,3.0057,3.0035,2.9998,2.9965,2.9923,2.997,2.9902,2.99,2.9917,2.9843,2.9839,2.9776,2.9864,2.9862,2.9861,0,3.0467,3.042,3.033,3.0279,3.0257,3.0213,3.0159,3.0114,3.0066,3.005,3.0011,2.9998,2.9938,2.9961,2.9878,2.9911,2.9882,2.9862,2.9859,2.9852,2.9878,2.9835,2.9754,2.9745,2.9846,2.9847,2.9848,0,3.0426,3.0339,3.0275,3.0251,3.0189,3.0159,3.0132,3.0086,3.0053,3.0004,2.9983,2.9927,2.9897,2.9854,2.9827,2.9846,2.9748,2.9767,2.9733,2.9733,2.9712,2.9714,2.9627,2.9692,2.9692,2.9692,2.9693,0,3.0349,3.0294,3.0256,3.0216,3.0156,3.0131,3.0071,3.0043,3.0003,2.9958,2.9945,2.9903,2.9869,2.9822,2.98,2.9736,2.9722,2.9707,2.9702,2.9709,2.9711,2.969,2.9694,2.969,2.969,2.9691,2.9691,0,3.0292,3.0264,3.0194,3.0143,3.0129,3.0086,3.0042,3.0003,2.9979,2.9922,2.9907,2.9867,2.9811,2.978,2.9709,2.9694,2.9624,2.962,2.9641,2.9639,2.9607,2.9611,2.9504,2.9489,2.9563,2.9562,2.9562,0,3.0245,3.0204,3.015,3.012,3.0093,3.0044,3.0011,2.9986,2.9952,2.9896,2.9864,2.9809,2.9763,2.9674,2.9638,2.9584,2.958,2.9546,2.9571,2.9581,2.9581,2.9585,2.9581,2.9542,2.9541,2.9541,2.954,0,3.0166,3.0156,3.011,3.006,3.0022,2.998,2.9939,2.9915,2.9883,2.9845,2.979,2.9755,2.9684,2.9629,2.9573,2.9544,2.9537,2.9533,2.9522,2.9529,2.9544,2.9537,2.963,2.9535,2.9536,2.9536,2.9536,2.9536,3.0114,3.0078,3.0035,2.9985,2.9953,2.9915,2.9878,2.9849,2.9803,2.9746,2.9733,2.9675,2.963,2.9554,2.9524,2.9478,2.9484,2.9468,2.9464,2.9461,2.9461,2.9551,2.9467,2.9467,2.9467,2.9467,2.9467,0,3.0036,3.0009,2.9963,2.9908,2.9869,2.9869,2.9824,2.9791,2.9741,2.97,2.9657,2.9594,2.9541,2.9502,2.9449,2.9419,2.9415,2.9406,2.9408,2.9402,2.9457,2.9473,2.9411,2.9411,2.9411,2.9411,2.9411,2.9411,2.9991,2.993,2.9915,2.9839,2.9811,2.9756,2.9731,2.9697,2.9665,2.9597,2.9554,2.953,2.949,2.9434,2.9386,2.9376,2.9357,2.9349,2.9339,2.9392,2.9398,2.9404,2.9418,2.9345,2.9345,2.9287,2.9287,2.9287]}]]